Location: Brantley
(31.5822°N, 86.2569°W)
Time: 02:56:55
(UTC+00:00)

Transit 2A Rocket - Pass Details

Date: 21 February 2026
Orbit: 583 x 900 km, 66.7° (Epoch: 8 March)

Event Time Altitude Azimuth Distance (km) Brightness Sun altitude
Rises 05:13:11 0° 350° (N) 3,307 - -66.5°
Reaches altitude 10° 05:16:23 10° 7° (N) 2,311 - -66.8°
Maximum altitude 05:20:07 19° 53° (NE) 1,682 - -67.2°
Drops below altitude 10° 05:23:37 10° 98° (E) 2,151 - -67.5°
Sets 05:26:27 0° 117° (ESE) 3,003 - -67.7°
